Time,TemperatureF,DewpointF,PressureIn,WindDirection,WindDirectionDegrees,WindSpeedMPH,WindSpeedGustMPH,Humidity,HourlyPrecipIn,Conditions,Clouds,dailyrainin,SoftwareType,DateUTC
2013-04-18 00:11:00,58.3,57.7,29.90,North,0,1.6,-999.0,98,-99.99,,,0.00,Acu-Link.com,2013-04-18 04:11:00,
2013-04-18 00:26:00,58.3,58.0,29.89,West,270,0.0,-999.0,99,-99.99,,,0.00,Acu-Link.com,2013-04-18 04:26:00,
2013-04-18 00:42:00,58.1,57.8,29.89,SW,225,0.0,-999.0,99,-99.99,,,0.00,Acu-Link.com,2013-04-18 04:42:00,
2013-04-18 00:57:00,57.9,57.6,29.88,SSW,202,0.0,-999.0,99,-99.99,,,0.00,Acu-Link.com,2013-04-18 04:57:00,
2013-04-18 01:12:00,57.6,57.3,29.89,WNW,292,0.0,-999.0,99,-99.99,,,0.00,Acu-Link.com,2013-04-18 05:12:00,
2013-04-18 01:27:00,57.6,57.3,29.90,South,180,0.0,-999.0,99,-99.99,,,0.00,Acu-Link.com,2013-04-18 05:27:00,
2013-04-18 01:42:00,57.0,56.7,29.91,NE,45,0.0,-999.0,99,-99.99,,,0.00,Acu-Link.com,2013-04-18 05:42:00,
2013-04-18 18:08:00,74.8,58.6,29.79,West,270,4.7,-999.0,57,-99.99,,,0.00,Acu-Link.com,2013-04-18 22:08:00,
2013-04-18 18:23:00,73.0,58.8,29.78,West,270,3.1,-999.0,61,-99.99,,,0.00,Acu-Link.com,2013-04-18 22:23:00,
2013-04-18 18:38:00,72.0,57.8,29.79,NNW,337,0.0,-999.0,61,-99.99,,,0.00,Acu-Link.com,2013-04-18 22:38:00,
2013-04-18 18:53:00,71.4,58.2,29.79,West,270,3.8,-999.0,63,-99.99,,,0.00,Acu-Link.com,2013-04-18 22:53:00,
2013-04-18 19:08:00,70.7,57.9,29.79,East,90,2.7,-999.0,64,-99.99,,,0.00,Acu-Link.com,2013-04-18 23:08:00,
2013-04-18 19:24:00,69.6,58.6,29.79,WNW,292,2.2,-999.0,68,-99.99,,,0.00,Acu-Link.com,2013-04-18 23:24:00,
2013-04-18 19:39:00,69.1,58.5,29.79,West,270,2.2,-999.0,69,-99.99,,,0.00,Acu-Link.com,2013-04-18 23:39:00,
2013-04-18 19:54:00,68.7,58.5,29.78,West,270,2.7,-999.0,70,-99.99,,,0.00,Acu-Link.com,2013-04-18 23:54:00,
2013-04-18 20:09:00,68.7,58.5,29.78,WNW,292,2.2,-999.0,70,-99.99,,,0.00,Acu-Link.com,2013-04-19 00:09:00,
2013-04-18 20:24:00,67.8,58.1,29.79,WSW,247,2.7,-999.0,71,-99.99,,,0.00,Acu-Link.com,2013-04-19 00:24:00,
2013-04-18 20:40:00,67.5,58.1,29.78,North,0,3.1,-999.0,72,-99.99,,,0.00,Acu-Link.com,2013-04-19 00:40:00,
2013-04-18 20:55:00,67.8,59.2,29.76,ESE,112,3.1,-999.0,74,-99.99,,,0.00,Acu-Link.com,2013-04-19 00:55:00,
2013-04-18 21:10:00,67.3,59.4,29.78,WSW,247,4.3,-999.0,76,-99.99,,,0.00,Acu-Link.com,2013-04-19 01:10:00,
2013-04-18 21:25:00,67.1,60.0,29.79,WNW,292,3.8,-999.0,78,-99.99,,,0.00,Acu-Link.com,2013-04-19 01:25:00,
2013-04-18 21:41:00,67.3,60.5,29.79,WNW,292,5.1,-999.0,79,-99.99,,,0.00,Acu-Link.com,2013-04-19 01:41:00,
2013-04-18 21:56:00,67.3,60.5,29.79,West,270,2.7,-999.0,79,-99.99,,,0.00,Acu-Link.com,2013-04-19 01:56:00,
2013-04-18 22:11:00,67.1,60.7,29.79,NNE,22,5.1,-999.0,80,-99.99,,,0.00,Acu-Link.com,2013-04-19 02:11:00,
2013-04-18 22:26:00,67.1,61.1,29.79,SW,225,2.7,-999.0,81,-99.99,,,0.00,Acu-Link.com,2013-04-19 02:26:00,
2013-04-18 22:41:00,66.9,60.5,29.79,SSE,157,2.2,-999.0,80,-99.99,,,0.00,Acu-Link.com,2013-04-19 02:41:00,
2013-04-18 22:57:00,66.9,60.9,29.78,WSW,247,1.1,-999.0,81,-99.99,,,0.00,Acu-Link.com,2013-04-19 02:57:00,
2013-04-18 23:12:00,66.9,60.5,29.77,West,270,3.8,-999.0,80,-99.99,,,0.00,Acu-Link.com,2013-04-19 03:12:00,
2013-04-18 23:27:00,66.9,60.9,29.77,NNE,22,2.7,-999.0,81,-99.99,,,0.00,Acu-Link.com,2013-04-19 03:27:00,